El Dorado, AR

7:02 AM CST on February 11, 2016 (GMT -0600)
South Arkansas Regional At Goodwin

Weather History for KELD - April, 2014

Change the Weather History Date:

Wednesday, April 2, 2014

  Actual Average Record
Temperature  
Mean Temperature 69 °F 60 °F  
Max Temperature 75 °F 73 °F 92 °F (1918)
Min Temperature 63 °F 47 °F 30 °F (1992)
Degree Days  
Heating Degree Days 0 6  
Month to date heating degree days 0 12  
Since 1 July heating degree days 3049 2548  
Cooling Degree Days 4 1  
Month to date cooling degree days 4 2  
Year to date cooling degree days 9 30  
Growing Degree Days 19 (Base 50)    
Moisture  
Dew Point 65 °F    
Average Humidity 87    
Maximum Humidity 100    
Minimum Humidity 74    
Precipitation  
Precipitation 0.01 in 0.14 in 4.37 in (1945)
Month to date precipitation 0.01 0.28  
Year to date precipitation 8.58 14.12  
Snow  
Snow 0.00 in - - ()
Month to date snowfall 0.0  
Since 1 July snowfall 1.1  
Snow Depth 0.00 in    
Sea Level Pressure  
Sea Level Pressure 29.93 in    
Wind  
Wind Speed 9 mph (SSE)    
Max Wind Speed 18 mph    
Max Gust Speed 26 mph    
Visibility 9 miles    
Events Rain , Thunderstorm    
T = Trace of Precipitation, MM = Missing Value Source: NWS Daily Summary

Daily Weather History Graph

Daily Weather History Graph

Search for Another Location

Airport or City:

Trip Planner

Search our weather history database for the weather conditions in past years. The results will help you decide how hot, cold, wet, or windy it might be!

Date:

Astronomy

Apr. 02, 2014 Rise Set
Actual Time 6:57 AM CDT 7:32 PM CDT
Civil Twilight 6:32 AM CDT 7:57 PM CDT
Nautical Twilight 6:03 AM CDT 8:26 PM CDT
Astronomical Twilight 5:33 AM CDT 8:56 PM CDT
Moon 8:50 AM CDT (4/2) 10:46 PM CDT (4/2)
Length of Visible Light 13h 24m
Length of Day
12h 34m
Waxing Crescent, 10% of the Moon is Illuminated
Apr 2
Waxing Crescent
Apr 7
First Quarter
Apr 15
Full
Apr 22
Last Quarter
Apr 29
New

Hourly Weather History & Observations

Time (CDT) Temp. Dew Point Humidity Pressure Visibility Wind Dir Wind Speed Gust Speed Precip Events Conditions
12:53 AM 64.9 °F 62.1 °F 90% 29.97 in 10.0 mi South 6.9 mph - N/A   Clear
1:53 AM 64.9 °F 62.1 °F 90% 29.96 in 10.0 mi SSE 4.6 mph - N/A   Clear
2:53 AM 63.0 °F 62.1 °F 97% 29.95 in 9.0 mi SSE 5.8 mph - N/A   Clear
3:53 AM 63.0 °F 63.0 °F 100% 29.94 in 8.0 mi SSE 6.9 mph - N/A   Clear
4:03 AM 63.0 °F 63.0 °F 100% 29.95 in 8.0 mi SSE 5.8 mph - N/A   Scattered Clouds
4:11 AM 64.0 °F 63.0 °F 96% 29.95 in 8.0 mi South 8.1 mph - N/A   Mostly Cloudy
4:53 AM 64.0 °F 63.0 °F 96% 29.96 in 9.0 mi South 9.2 mph - N/A   Overcast
5:53 AM 64.9 °F 63.0 °F 93% 29.96 in 9.0 mi SSE 6.9 mph - N/A   Overcast
7:53 AM 64.9 °F 63.0 °F 93% 29.97 in 7.0 mi SE 6.9 mph - N/A   Overcast
8:53 AM 66.0 °F 64.0 °F 93% 29.97 in 8.0 mi SE 8.1 mph - N/A   Overcast
9:53 AM 66.9 °F 64.0 °F 90% 29.98 in 9.0 mi SSE 10.4 mph - N/A   Overcast
10:04 AM 66.9 °F 64.0 °F 90% 29.99 in 9.0 mi SSE 9.2 mph - N/A Thunderstorm Overcast
10:20 AM 66.9 °F 64.9 °F 93% 29.98 in 9.0 mi SSE 9.2 mph - 0.00 in Rain Light Rain
10:53 AM 68.0 °F 64.9 °F 90% 29.97 in 9.0 mi SSE 10.4 mph - 0.00 in   Overcast
11:53 AM 69.1 °F 64.9 °F 87% 29.98 in 10.0 mi SSE 9.2 mph - N/A   Overcast
12:53 PM 72.0 °F 66.0 °F 81% 29.95 in 10.0 mi SSE 13.8 mph - N/A   Overcast
1:11 PM 73.0 °F 66.0 °F 79% 29.95 in 10.0 mi South 10.4 mph 19.6 mph N/A   Overcast
1:53 PM 75.0 °F 66.9 °F 76% 29.94 in 10.0 mi SSE 9.2 mph - N/A   Overcast
2:53 PM 73.0 °F 66.9 °F 81% 29.92 in 10.0 mi SSE 9.2 mph - 0.00 in   Overcast
3:13 PM 73.0 °F 66.9 °F 81% 29.91 in 10.0 mi SSE 8.1 mph - N/A   Overcast
3:32 PM 73.0 °F 68.0 °F 84% 29.91 in 10.0 mi SE 6.9 mph - 0.00 in   Overcast
3:53 PM 75.0 °F 68.0 °F 79% 29.89 in 9.0 mi SE 9.2 mph - 0.00 in   Overcast
4:53 PM 75.2 °F 66.2 °F 73% 29.88 in 10.0 mi SSE 12.7 mph 25.3 mph N/A   Overcast
5:08 PM 75.0 °F 66.9 °F 76% 29.88 in 10.0 mi SSE 16.1 mph 24.2 mph N/A   Mostly Cloudy
5:53 PM 75.0 °F 68.0 °F 79% 29.88 in 10.0 mi SSE 8.1 mph - N/A   Mostly Cloudy
6:53 PM 73.9 °F 68.0 °F 82% 29.88 in 10.0 mi SSE 10.4 mph - N/A   Overcast
7:53 PM 73.0 °F 68.0 °F 84% 29.87 in 10.0 mi SE 5.8 mph - N/A   Overcast
8:53 PM 72.0 °F 66.9 °F 84% 29.88 in 10.0 mi SE 5.8 mph - N/A   Overcast
9:53 PM 72.0 °F 66.9 °F 84% 29.87 in 10.0 mi SE 10.4 mph - N/A   Scattered Clouds
10:53 PM 72.0 °F 66.0 °F 81% 29.87 in 10.0 mi SSE 12.7 mph 19.6 mph N/A   Partly Cloudy
11:53 PM 71.1 °F 66.0 °F 84% 29.88 in 10.0 mi SE 10.4 mph - N/A   Scattered Clouds